Find Starlink 31029

NORAD ID: 58712 Int'l Des: 2024-002 Owner: SPXS Country: US Constellation: starlink operational
LEOCIRCULAR

現在のビュー

3D地球を読み込み中...

About Starlink 31029

Starlink 31029 (NORAD 58712) is a starlink constellation satellite (v2 mini) launched Jan 3, 2024 by SPXS of US. It operates in LEO, CIRCULAR orbit with a mass of 730.00 kg.

次回通過

Passes for default location (London). Set your location on the main map for personalized predictions.

高度履歴

Loading altitude history...

軌道要素

1 58712U 24002H 26265.64120829 .00000816 00000-0 35270-4 0 9990
2 58712 53.1613 33.4101 0001074 94.0255 266.0870 15.34401089152195
Epoch: Sep 22, 2026 • Age: 13 hours

現在のステータス

高度 467.2 km
遠地点 / 近地点 N/A
速度 7.64 km/s
衛星直下点 47.02°N, 19.27°E
打ち上げ日 Jan 3, 2024
運用期間 2.7 years
タイプ internet

技術仕様

分類 Payload
質量 730.00 kg
乾燥質量 700.00 kg
長さ 0.30 m
スパン 29.00 m
形状 ? Box + pan
製造者 SPXS
バスタイプ Starlink V2M
フェーズステータス In Orbit
所有者/国 SPXS/US

Most Searched